DLH24C EDDF-EDDC

Flight info

Callsign DLH24C
Flight time 0h 41m
Altitude 23000
Route SULUS7S/18 SULUS L984 KULOK Z715 ABKIS Q240 DRN
Aircraft A319/M-SDE3FGHIRWY/LB1

Departure

Time 2026-05-04 18:42
Airport Frankfurt Main Airport (EDDF)

Arrival

Time 2026-05-04 19:24
Airport Dresden Airport (EDDC)
Time Latitude Longitude Altitude Speed Heading
2026-05-04 18:10 50.04736 8.56738 356 ft 0 kts 114°
2026-05-04 18:28 50.04736 8.56737 356 ft 1 kts 114°
2026-05-04 18:28 50.04747 8.56702 363 ft 4 kts 118°
2026-05-04 18:29 50.04762 8.56671 364 ft 4 kts 156°
2026-05-04 18:29 50.04773 8.56668 361 ft 0 kts 204°
2026-05-04 18:32 50.04764 8.56660 362 ft 5 kts 207°
2026-05-04 18:32 50.04723 8.56591 359 ft 12 kts 232°
2026-05-04 18:32 50.04677 8.56487 359 ft 11 kts 250°
2026-05-04 18:33 50.04651 8.56367 361 ft 12 kts 250°
2026-05-04 18:33 50.04622 8.56244 358 ft 12 kts 249°
2026-05-04 18:33 50.04605 8.56176 358 ft 0 kts 250°
2026-05-04 18:35 50.04604 8.56170 357 ft 3 kts 250°
2026-05-04 18:36 50.04580 8.56073 358 ft 12 kts 249°
2026-05-04 18:36 50.04537 8.55963 359 ft 12 kts 208°
2026-05-04 18:36 50.04456 8.55927 357 ft 12 kts 195°
2026-05-04 18:36 50.04375 8.55908 360 ft 12 kts 169°
2026-05-04 18:37 50.04293 8.55958 358 ft 9 kts 158°
2026-05-04 18:37 50.04234 8.55917 357 ft 14 kts 243°
2026-05-04 18:37 50.04186 8.55717 354 ft 24 kts 249°
2026-05-04 18:37 50.04125 8.55462 351 ft 25 kts 250°
2026-05-04 18:38 50.04065 8.55211 359 ft 24 kts 250°
2026-05-04 18:38 50.04007 8.54967 359 ft 24 kts 250°
2026-05-04 18:38 50.03946 8.54715 355 ft 26 kts 250°
2026-05-04 18:38 50.03883 8.54450 348 ft 27 kts 249°
2026-05-04 18:39 50.03803 8.54235 347 ft 23 kts 245°
2026-05-04 18:39 50.03748 8.54005 347 ft 23 kts 249°
2026-05-04 18:39 50.03692 8.53769 349 ft 24 kts 250°
2026-05-04 18:39 50.03630 8.53526 339 ft 25 kts 249°
2026-05-04 18:40 50.03571 8.53279 337 ft 23 kts 250°
2026-05-04 18:40 50.03513 8.53037 336 ft 24 kts 249°
2026-05-04 18:40 50.03452 8.52802 336 ft 23 kts 247°
2026-05-04 18:40 50.03408 8.52631 335 ft 13 kts 245°
2026-05-04 18:41 50.03332 8.52593 336 ft 8 kts 178°
2026-05-04 18:41 50.03270 8.52595 333 ft 19 kts 179°
2026-05-04 18:41 50.02841 8.52600 336 ft 101 kts 180°
2026-05-04 18:41 50.01906 8.52607 338 ft 164 kts 180°
2026-05-04 18:42 50.01127 8.52617 737 ft 163 kts 180°
2026-05-04 18:42 49.99629 8.52648 1685 ft 164 kts 180°
2026-05-04 18:42 49.98822 8.52662 1982 ft 178 kts 180°
2026-05-04 18:42 49.97518 8.52785 2394 ft 200 kts 165°
2026-05-04 18:43 49.96261 8.53924 2749 ft 226 kts 134°
2026-05-04 18:43 49.95416 8.56058 3469 ft 235 kts 117°
2026-05-04 18:43 49.94640 8.58318 4009 ft 237 kts 119°
2026-05-04 18:43 49.94083 8.60723 4986 ft 244 kts 102°
2026-05-04 18:44 49.93908 8.63480 5534 ft 267 kts 95°
2026-05-04 18:44 49.93818 8.65412 6099 ft 273 kts 99°
2026-05-04 18:44 49.93042 8.69159 7340 ft 275 kts 123°
2026-05-04 18:44 49.91868 8.71498 8303 ft 276 kts 140°
2026-05-04 18:45 49.90343 8.73305 9269 ft 278 kts 148°
2026-05-04 18:45 49.88837 8.75244 10186 ft 288 kts 138°
2026-05-04 18:45 49.87552 8.77807 10575 ft 316 kts 124°
2026-05-04 18:45 49.86446 8.80911 10890 ft 341 kts 122°
2026-05-04 18:46 49.85278 8.84185 11217 ft 353 kts 122°
2026-05-04 18:46 49.84082 8.87516 12077 ft 356 kts 122°
2026-05-04 18:46 49.82864 8.90894 12927 ft 361 kts 122°
2026-05-04 18:46 49.81629 8.94299 13740 ft 365 kts 122°
2026-05-04 18:47 49.80398 8.97684 14458 ft 370 kts 122°
2026-05-04 18:47 49.79127 9.01167 15176 ft 374 kts 122°
2026-05-04 18:47 49.77840 9.04683 15915 ft 378 kts 122°
2026-05-04 18:47 49.76865 9.08490 16605 ft 388 kts 102°
2026-05-04 18:48 49.76938 9.12691 17310 ft 398 kts 77°
2026-05-04 18:48 49.77901 9.16731 18036 ft 403 kts 70°
2026-05-04 18:48 49.78795 9.20853 18692 ft 406 kts 73°
2026-05-04 18:48 49.79655 9.25036 19314 ft 410 kts 74°
2026-05-04 18:49 49.80514 9.29267 19927 ft 414 kts 74°
2026-05-04 18:49 49.81367 9.33554 20531 ft 418 kts 75°
2026-05-04 18:49 49.82212 9.37875 21134 ft 422 kts 75°
2026-05-04 18:49 49.83058 9.42242 21720 ft 425 kts 75°
2026-05-04 18:50 49.83908 9.46655 22294 ft 429 kts 75°
2026-05-04 18:50 49.84759 9.51099 22807 ft 432 kts 75°
2026-05-04 18:50 49.85619 9.55574 22938 ft 436 kts 75°
2026-05-04 18:50 49.86500 9.60155 22982 ft 450 kts 75°
2026-05-04 18:51 49.87402 9.64840 22977 ft 455 kts 75°
2026-05-04 18:51 49.88321 9.69616 22974 ft 457 kts 75°
2026-05-04 18:51 49.89230 9.74335 22974 ft 457 kts 75°
2026-05-04 18:51 49.90136 9.79056 22973 ft 457 kts 75°
2026-05-04 18:52 49.91040 9.83784 22970 ft 457 kts 75°
2026-05-04 18:52 49.91937 9.88512 22968 ft 457 kts 75°
2026-05-04 18:52 49.92832 9.93256 22970 ft 461 kts 75°
2026-05-04 18:52 49.93734 9.98048 22966 ft 464 kts 75°
2026-05-04 18:53 49.94638 10.02874 22961 ft 465 kts 75°
2026-05-04 18:53 49.95540 10.07698 22956 ft 466 kts 75°
2026-05-04 18:53 49.96443 10.12533 22962 ft 467 kts 75°
2026-05-04 18:53 49.97346 10.17377 22959 ft 467 kts 75°
2026-05-04 18:54 49.98250 10.22228 22960 ft 467 kts 75°
2026-05-04 18:54 49.99148 10.27073 22962 ft 467 kts 75°
2026-05-04 18:54 50.00047 10.31929 22964 ft 467 kts 75°
2026-05-04 18:54 50.00947 10.36782 22959 ft 467 kts 75°
2026-05-04 18:55 50.01844 10.41634 22958 ft 467 kts 75°
2026-05-04 18:55 50.03621 10.51346 22959 ft 467 kts 76°
2026-05-04 18:55 50.04500 10.56199 22944 ft 467 kts 76°
2026-05-04 18:56 50.05379 10.61062 22943 ft 467 kts 76°
2026-05-04 18:56 50.06255 10.65924 22938 ft 467 kts 76°
2026-05-04 18:56 50.07077 10.70806 22936 ft 466 kts 80°
2026-05-04 18:56 50.07492 10.75797 22938 ft 464 kts 89°
2026-05-04 18:57 50.07526 10.80810 22941 ft 463 kts 92°
2026-05-04 18:57 50.07523 10.85823 22938 ft 463 kts 92°
2026-05-04 18:57 50.07655 10.90834 22934 ft 466 kts 83°
2026-05-04 18:57 50.08493 10.95719 22940 ft 468 kts 72°
2026-05-04 18:58 50.09579 11.00486 22943 ft 468 kts 71°
2026-05-04 18:58 50.10679 11.05264 22933 ft 468 kts 71°
2026-05-04 18:58 50.11780 11.10040 22945 ft 469 kts 71°
2026-05-04 18:58 50.12878 11.14825 22944 ft 469 kts 71°
2026-05-04 18:59 50.13967 11.19616 22943 ft 469 kts 71°
2026-05-04 18:59 50.15026 11.24422 22940 ft 469 kts 72°
2026-05-04 18:59 50.16048 11.29252 22939 ft 469 kts 73°
2026-05-04 18:59 50.17045 11.34095 22941 ft 469 kts 73°
2026-05-04 19:00 50.18036 11.38945 22943 ft 469 kts 73°
2026-05-04 19:00 50.19028 11.43792 22939 ft 469 kts 73°
2026-05-04 19:00 50.20024 11.48642 22945 ft 469 kts 73°
2026-05-04 19:00 50.21022 11.53487 22949 ft 469 kts 73°
2026-05-04 19:01 50.22022 11.58337 22941 ft 469 kts 73°
2026-05-04 19:01 50.23021 11.63192 22949 ft 469 kts 73°
2026-05-04 19:01 50.24022 11.68046 22903 ft 472 kts 73°
2026-05-04 19:01 50.25027 11.72932 22630 ft 473 kts 73°
2026-05-04 19:02 50.26032 11.77822 22365 ft 472 kts 73°
2026-05-04 19:02 50.27036 11.82698 22101 ft 470 kts 73°
2026-05-04 19:02 50.28030 11.87556 21840 ft 468 kts 73°
2026-05-04 19:02 50.29008 11.92400 21581 ft 466 kts 73°
2026-05-04 19:03 50.29977 11.97222 21324 ft 464 kts 73°
2026-05-04 19:03 50.30942 12.02030 21065 ft 463 kts 73°
2026-05-04 19:03 50.31901 12.06829 20803 ft 461 kts 73°
2026-05-04 19:03 50.32846 12.11598 20550 ft 458 kts 73°
2026-05-04 19:04 50.33781 12.16351 20299 ft 456 kts 74°
2026-05-04 19:04 50.34874 12.21002 20047 ft 455 kts 66°
2026-05-04 19:04 50.36320 12.25410 19924 ft 454 kts 63°
2026-05-04 19:04 50.37797 12.29779 19964 ft 455 kts 63°
2026-05-04 19:05 50.39278 12.34160 19962 ft 455 kts 63°
2026-05-04 19:05 50.40752 12.38539 19961 ft 455 kts 63°
2026-05-04 19:05 50.42222 12.42932 19962 ft 455 kts 63°
2026-05-04 19:05 50.43686 12.47328 19962 ft 455 kts 63°
2026-05-04 19:06 50.45147 12.51725 19967 ft 455 kts 63°
2026-05-04 19:06 50.46612 12.56122 19968 ft 455 kts 63°
2026-05-04 19:06 50.48076 12.60525 19955 ft 455 kts 63°
2026-05-04 19:06 50.49539 12.64917 19970 ft 454 kts 63°
2026-05-04 19:07 50.51002 12.69311 19872 ft 454 kts 63°
2026-05-04 19:07 50.52457 12.73694 19631 ft 452 kts 63°
2026-05-04 19:07 50.53907 12.78071 19387 ft 450 kts 63°
2026-05-04 19:07 50.55347 12.82434 19152 ft 449 kts 63°
2026-05-04 19:08 50.56778 12.86788 18914 ft 448 kts 63°
2026-05-04 19:08 50.58202 12.91136 18679 ft 446 kts 64°
2026-05-04 19:08 50.59619 12.95465 18449 ft 445 kts 64°
2026-05-04 19:08 50.61035 12.99788 18219 ft 443 kts 64°
2026-05-04 19:09 50.62445 13.04096 17949 ft 441 kts 64°
2026-05-04 19:09 50.63893 13.08352 17678 ft 440 kts 62°
2026-05-04 19:09 50.65440 13.12503 17418 ft 439 kts 59°
2026-05-04 19:09 50.67058 13.16576 17152 ft 438 kts 58°
2026-05-04 19:10 50.68703 13.20605 16882 ft 436 kts 58°
2026-05-04 19:10 50.70342 13.24617 16622 ft 434 kts 58°
2026-05-04 19:10 50.71957 13.28623 16366 ft 433 kts 58°
2026-05-04 19:10 50.73551 13.32651 16113 ft 432 kts 59°
2026-05-04 19:11 50.75120 13.36683 15863 ft 430 kts 59°
2026-05-04 19:11 50.76672 13.40711 15613 ft 429 kts 59°
2026-05-04 19:11 50.78218 13.44741 15366 ft 428 kts 59°
2026-05-04 19:11 50.79761 13.48759 15124 ft 427 kts 59°
2026-05-04 19:12 50.81306 13.52763 14867 ft 426 kts 59°
2026-05-04 19:12 50.85108 13.59885 14397 ft 424 kts 40°
2026-05-04 19:12 50.87346 13.62916 14157 ft 423 kts 40°
2026-05-04 19:13 50.89575 13.65948 13924 ft 422 kts 40°
2026-05-04 19:13 50.91791 13.68981 13673 ft 420 kts 40°
2026-05-04 19:13 50.93998 13.72012 13405 ft 419 kts 40°
2026-05-04 19:13 50.96178 13.75010 13047 ft 409 kts 40°
2026-05-04 19:14 50.98323 13.77957 12267 ft 408 kts 40°
2026-05-04 19:14 51.00456 13.80892 11601 ft 405 kts 40°
2026-05-04 19:14 51.02564 13.83793 10934 ft 394 kts 40°
2026-05-04 19:14 51.04591 13.86584 10281 ft 379 kts 40°
2026-05-04 19:15 51.06548 13.89277 9608 ft 365 kts 40°
2026-05-04 19:15 51.08439 13.91878 8908 ft 353 kts 40°
2026-05-04 19:15 51.10264 13.94396 8222 ft 342 kts 40°
2026-05-04 19:15 51.12020 13.96817 7853 ft 323 kts 40°
2026-05-04 19:16 51.13668 13.99094 7556 ft 305 kts 40°
2026-05-04 19:16 51.15236 14.01264 7265 ft 294 kts 41°
2026-05-04 19:16 51.16773 14.03395 6974 ft 292 kts 41°
2026-05-04 19:16 51.18283 14.05496 6682 ft 285 kts 41°
2026-05-04 19:17 51.19756 14.07549 6399 ft 278 kts 41°
2026-05-04 19:17 51.21198 14.09560 6092 ft 272 kts 41°
2026-05-04 19:17 51.22614 14.11518 5786 ft 266 kts 38°
2026-05-04 19:17 51.24232 14.12786 5483 ft 257 kts
2026-05-04 19:18 51.25964 14.12622 5184 ft 248 kts 338°
2026-05-04 19:18 51.27343 14.11119 4887 ft 238 kts 307°
2026-05-04 19:18 51.27985 14.08762 4586 ft 231 kts 274°
2026-05-04 19:18 51.27840 14.06229 4289 ft 230 kts 257°
2026-05-04 19:19 51.27483 14.03740 4049 ft 230 kts 256°
2026-05-04 19:19 51.27098 14.01247 3846 ft 232 kts 255°
2026-05-04 19:19 51.26708 13.98769 3576 ft 228 kts 255°
2026-05-04 19:19 51.26325 13.96349 3414 ft 220 kts 255°
2026-05-04 19:20 51.26008 13.94801 3310 ft 215 kts 243°
2026-05-04 19:20 51.25124 13.92957 3163 ft 207 kts 221°
2026-05-04 19:20 51.24053 13.91480 3086 ft 201 kts 221°
2026-05-04 19:20 51.22999 13.90018 2966 ft 200 kts 221°
2026-05-04 19:21 51.21952 13.88568 2669 ft 199 kts 221°
2026-05-04 19:21 51.20909 13.87124 2399 ft 196 kts 220°
2026-05-04 19:21 51.19916 13.85750 2212 ft 183 kts 220°
2026-05-04 19:21 51.18979 13.84453 2016 ft 172 kts 221°
2026-05-04 19:22 51.18132 13.83280 1814 ft 153 kts 221°
2026-05-04 19:22 51.17352 13.82205 1549 ft 143 kts 220°
2026-05-04 19:22 51.16624 13.81187 1322 ft 135 kts 222°
2026-05-04 19:22 51.15922 13.80202 1146 ft 134 kts 220°
2026-05-04 19:23 51.15214 13.79242 999 ft 134 kts 220°
2026-05-04 19:23 51.14510 13.78278 840 ft 133 kts 221°
2026-05-04 19:23 51.13814 13.77320 728 ft 126 kts 221°
2026-05-04 19:23 51.13244 13.76537 746 ft 86 kts 221°
2026-05-04 19:24 51.12917 13.76084 757 ft 43 kts 220°
2026-05-04 19:24 51.12753 13.75864 763 ft 15 kts 220°
2026-05-04 19:24 51.12680 13.75870 763 ft 12 kts 126°
2026-05-04 19:24 51.12623 13.75971 761 ft 13 kts 130°
2026-05-04 19:25 51.12590 13.76032 759 ft 2 kts 130°
2026-05-04 19:25 51.12589 13.76033 759 ft 0 kts 130°
2026-05-04 19:26 51.12584 13.76044 759 ft 3 kts 126°
2026-05-04 19:26 51.12592 13.76117 760 ft 12 kts 51°
2026-05-04 19:26 51.12661 13.76213 755 ft 15 kts 40°
2026-05-04 19:26 51.12746 13.76329 755 ft 18 kts 40°
2026-05-04 19:27 51.12776 13.76429 750 ft 10 kts 123°
2026-05-04 19:27 51.12731 13.76512 753 ft 6 kts 134°
2026-05-04 19:27 51.12687 13.76519 751 ft 7 kts 206°
2026-05-04 19:27 51.12665 13.76489 752 ft 2 kts 226°
2026-05-04 19:28 51.12658 13.76479 753 ft 0 kts 223°